Location: Heathcote
(40.9845°N, 73.7746°W)
Time: 04:13:23
(UTC+00:00)

Cosmos 1825 - Pass Details

Date: 29 October 2020
Orbit: 502 x 508 km, 82.5° (Epoch: 23 November)

Event Time Altitude Azimuth Distance (km) Brightness Sun altitude
Rises 23:30:47 0° 355° (N) 2,619 5.8 -18.8°
Reaches altitude 10° 23:32:56 10° 358° (N) 1,728 4.8 -19.2°
Maximum altitude 23:36:42 64° 81° (E) 562 2.0 -19.9°
Enters shadow 23:36:53 63° 101° (E) 568 2.0 -19.9°
